This is the latest recevied weather packets stored in our database for station/object NK7E-1. If no packets are shown the sender has not sent any weather packets the latest 10 day(s).
| Time | Temp. | Humidity | Pressure | Rain* | Wind** | Luminosity | Snow |
|---|---|---|---|---|---|---|---|
| 1788591002 | 27.22° C | 57% | 1016 hPa | 0 mm | - | - | - |
| 1788590403 | 27.22° C | 56% | 1015.9 hPa | 0 mm | - | - | - |
| 1788589802 | 27.22° C | 55% | 1015.9 hPa | 0 mm | - | - | - |
| 1788589202 | 27.78° C | 56% | 1015.9 hPa | 0 mm | - | - | - |
| 1788588603 | 27.78° C | 55% | 1015.8 hPa | 0 mm | - | - | - |
| 1788588003 | 27.78° C | 55% | 1015.7 hPa | 0 mm | - | - | - |
| 1788587402 | 28.33° C | 55% | 1015.6 hPa | 0 mm | - | - | - |
| 1788586802 | 28.33° C | 53% | 1015.6 hPa | 0 mm | - | - | - |
| 1788586202 | 28.33° C | 53% | 1015.5 hPa | 0 mm | - | - | - |
| 1788585602 | 28.89° C | 50% | 1015.4 hPa | 0 mm | - | - | - |
| 1788585003 | 29.44° C | 48% | 1015.3 hPa | 0 mm | - | - | - |
| 1788584403 | 30° C | 44% | 1015.2 hPa | 0 mm | - | - | - |
| 1788583802 | 30.56° C | 43% | 1015.2 hPa | 0 mm | - | - | - |
| 1788583202 | 30.56° C | 43% | 1015.1 hPa | 0 mm | - | - | - |
| 1788582602 | 30.56° C | 42% | 1015.2 hPa | 0 mm | - | - | - |
| 1788582002 | 30.56° C | 42% | 1015.2 hPa | 0 mm | - | - | - |
| 1788581402 | 31.11° C | 41% | 1015.3 hPa | 0 mm | - | - | - |
| 1788580805 | 31.11° C | 40% | 1015.2 hPa | 0 mm | - | - | - |
| 1788580204 | 31.11° C | 40% | 1015.2 hPa | 0 mm | - | - | - |
| 1788579604 | 31.11° C | 40% | 1015.2 hPa | 0 mm | - | - | - |
| 1788579004 | 31.11° C | 39% | 1015 hPa | 0 mm | - | - | - |
| 1788578404 | 31.67° C | 38% | 1014.9 hPa | 0 mm | - | - | - |
| 1788577804 | 31.67° C | 38% | 1014.8 hPa | 0 mm | - | - | - |
| 1788577204 | 31.67° C | 37% | 1014.6 hPa | 0 mm | - | - | - |
| 1788576604 | 31.67° C | 37% | 1014.5 hPa | 0 mm | - | - | - |
* Rain latest hour (hover to see other rain measurements)
** Current wind speed in m/s (hover to see current wind gust speed)